Weather History for Pittsburgh, PA

Change the Weather History Date:

Thursday, October 14, 2010

  Actual Average Record
Temperature  
Mean Temperature 53 °F 53 °F  
Max Temperature 61 °F 63 °F 86 °F (1897)
Min Temperature 45 °F 43 °F 26 °F (1988)
Degree Days  
Heating Degree Days 12 12  
Month to date heating degree days 130 141  
Since 1 July heating degree days 201 255  
Cooling Degree Days 0 0  
Month to date cooling degree days 2 6  
Year to date cooling degree days 1028 734  
Growing Degree Days 2 (Base 50)    
Moisture  
Dew Point 41 °F    
Average Humidity 66    
Maximum Humidity 77    
Minimum Humidity 54    
Precipitation  
Precipitation 0.03 in 0.07 in 1.46 in (1942)
Month to date precipitation 0.97 1.02  
Year to date precipitation 29.17 30.84  
Snow  
Snow 0.00 in 0.00 in T in (1945)
Month to date snowfall 0.0 0.0  
Since 1 July snowfall 0.0 0.0  
Snow Depth 0.00 in    
Sea Level Pressure  
Sea Level Pressure 29.90 in    
Wind  
Wind Speed 8 mph (WNW)    
Max Wind Speed 25 mph    
Max Gust Speed 31 mph    
Visibility 10 miles    
Events Rain    
T = Trace of Precipitation, MM = Missing Value Source: NWS Daily Summary

Daily Weather History Graph

Daily Weather History Graph

Search for Another Location

Airport:

Trip Planner

Search our weather history database for the weather conditions in past years. The results will help you decide how hot, cold, wet, or windy it might be!

Date:

Astronomy

Oct. 14, 2010 Rise Set
Actual Time 7:30 AM EDT 6:42 PM EDT
Civil Twilight 7:03 AM EDT 7:09 PM EDT
Nautical Twilight 6:31 AM EDT 7:41 PM EDT
Astronomical Twilight 5:59 AM EDT 8:12 PM EDT
Moon 2:30 PM EDT (10/14) No Moon Set
Length of Visible Light 12h 06m
Length of Day
11h 11m
Waxing Crescent, 48% of the Moon is Illuminated
Oct 14
Waxing Crescent
Oct 14
First Quarter
Oct 22
Full
Oct 30
Last Quarter
Nov 6
New

Hourly Weather History & Observations

Time (EDT) Temp. Dew Point Humidity Pressure Visibility Wind Dir Wind Speed Gust Speed Precip Events Conditions
12:51 AM 51.1 °F 39.9 °F 66% 29.91 in 10.0 mi Calm Calm - N/A   Mostly Cloudy
1:51 AM 51.1 °F 37.9 °F 61% 29.90 in 10.0 mi Calm Calm - N/A   Mostly Cloudy
2:51 AM 48.9 °F 41.0 °F 74% 29.88 in 10.0 mi Calm Calm - N/A   Overcast
3:51 AM 50.0 °F 41.0 °F 71% 29.86 in 10.0 mi Calm Calm - N/A   Overcast
4:51 AM 51.1 °F 39.0 °F 63% 29.88 in 10.0 mi WNW 3.5 mph - 0.00 in Rain Light Rain
5:51 AM 48.9 °F 42.1 °F 77% 29.88 in 10.0 mi Calm Calm - 0.00 in   Overcast
6:51 AM 48.9 °F 41.0 °F 74% 29.90 in 10.0 mi West 8.1 mph - N/A   Overcast
7:51 AM 48.9 °F 41.0 °F 74% 29.91 in 10.0 mi West 5.8 mph - N/A   Overcast
8:02 AM 48.2 °F 42.8 °F 82% 29.88 in 10.0 mi West 6.9 mph - N/A   Overcast
8:51 AM 52.0 °F 44.1 °F 74% 29.92 in 10.0 mi NW 11.5 mph - N/A   Overcast
9:39 AM 51.8 °F 46.4 °F 82% 29.90 in 10.0 mi NW 13.8 mph - 0.00 in Rain Light Rain
9:51 AM 51.8 °F 46.4 °F 82% 29.90 in 8.0 mi NW 11.5 mph - N/A Rain Light Rain
10:51 AM 52.0 °F 46.0 °F 80% 29.94 in 10.0 mi NW 10.4 mph - 0.00 in   Overcast
11:51 AM 55.0 °F 44.1 °F 67% 29.93 in 10.0 mi WNW 13.8 mph - N/A   Overcast
12:51 PM 55.9 °F 41.0 °F 57% 29.91 in 10.0 mi WNW 11.5 mph - N/A   Mostly Cloudy
1:51 PM 57.0 °F 41.0 °F 55% 29.90 in 10.0 mi NNW 19.6 mph 29.9 mph 0.00 in   Mostly Cloudy
2:51 PM 55.0 °F 39.9 °F 57% 29.90 in 10.0 mi NW 17.3 mph 29.9 mph N/A   Mostly Cloudy
3:51 PM 54.0 °F 39.9 °F 59% 29.91 in 10.0 mi NW 21.9 mph 27.6 mph 0.00 in   Mostly Cloudy
4:51 PM 53.1 °F 39.0 °F 59% 29.91 in 10.0 mi NW 13.8 mph 24.2 mph N/A   Mostly Cloudy
5:51 PM 54.0 °F 37.9 °F 55% 29.91 in 10.0 mi WNW 15.0 mph - N/A   Scattered Clouds
6:51 PM 50.0 °F 39.0 °F 66% 29.92 in 10.0 mi WNW 8.1 mph - N/A   Scattered Clouds
7:51 PM 48.9 °F 39.9 °F 71% 29.93 in 10.0 mi West 5.8 mph - N/A   Mostly Cloudy
8:51 PM 48.0 °F 39.9 °F 74% 29.92 in 10.0 mi West 3.5 mph - N/A   Overcast
9:51 PM 48.0 °F 39.9 °F 74% 29.91 in 10.0 mi Calm Calm - N/A   Overcast
10:51 PM 46.9 °F 39.9 °F 77% 29.90 in 10.0 mi Calm Calm - N/A   Overcast
11:51 PM 46.0 °F 39.9 °F 79% 29.87 in 10.0 mi Calm Calm - N/A   Overcast